This is the latest recevied weather packets stored in our database for station/object DL6JOE-10. If no packets are shown the sender has not sent any weather packets the latest 10 day(s).
| Time | Temp. | Humidity | Pressure | Rain* | Wind** | Luminosity | Snow |
|---|---|---|---|---|---|---|---|
| 1777291531 | 27.78° C | 23% | 966.2 hPa | - | - | - | - |
| 1777290630 | 26.11° C | 26% | 966.4 hPa | - | - | - | - |
| 1777289730 | 25° C | 26% | 966.5 hPa | - | - | - | - |
| 1777288830 | 25.56° C | 27% | 966.7 hPa | - | - | - | - |
| 1777287930 | 23.89° C | 27% | 966.7 hPa | - | - | - | - |
| 1777287030 | 23.89° C | 28% | 966.8 hPa | - | - | - | - |
| 1777286130 | 23.89° C | 28% | 967 hPa | - | - | - | - |
| 1777285230 | 23.33° C | 29% | 967.1 hPa | - | - | - | - |
| 1777284330 | 22.22° C | 30% | 967.2 hPa | - | - | - | - |
| 1777283430 | 22.22° C | 30% | 967.4 hPa | - | - | - | - |
| 1777282530 | 22.22° C | 30% | 967.5 hPa | - | - | - | - |
| 1777281630 | 21.67° C | 31% | 967.6 hPa | - | - | - | - |
| 1777280729 | 20.56° C | 32% | 967.8 hPa | - | - | - | - |
| 1777279829 | 20° C | 33% | 967.9 hPa | - | - | - | - |
| 1777278929 | 18.89° C | 34% | 967.9 hPa | - | - | - | - |
| 1777278029 | 18.33° C | 35% | 967.9 hPa | - | - | - | - |
| 1777277129 | 17.78° C | 35% | 967.9 hPa | - | - | - | - |
| 1777276229 | 16.67° C | 36% | 967.9 hPa | - | - | - | - |
| 1777275329 | 15° C | 38% | 968 hPa | - | - | - | - |
| 1777274429 | 14.44° C | 39% | 968.1 hPa | - | - | - | - |
| 1777273529 | 13.33° C | 40% | 968.2 hPa | - | - | - | - |
| 1777272629 | 12.78° C | 40% | 968.1 hPa | - | - | - | - |
| 1777271729 | 12.22° C | 41% | 968.2 hPa | - | - | - | - |
| 1777270828 | 11.67° C | 40% | 968.1 hPa | - | - | - | - |
| 1777269928 | 11.11° C | 40% | 968 hPa | - | - | - | - |
* Rain since midnight (hover to see other rain measurements)
** Current wind speed in m/s (hover to see current wind gust speed)